TRANSIT 5B-1 DEB, 2097

Orbit data source: Space-Track

TRANSIT 5B-1 DEB, 2097 is space debris in LEO originally from a launch on Sat, 28 Sep 1963 UTC launched from the Air Force Western Test Range (AFWTR). Debris objects in space refer to the collection of defunct objects orbiting the Earth. Examples of debris include non-operational satellites, rocket bodies, and fragments generated from explosions, collisions, or faulty payload assembly.

Loading next visibility...
Identifier
2097, 1963-038G
Orbit
LEO
Country
Flag of USUS
Related business
Manufacturer
Unknown
Mission
Spacecraft
Bus & Motor
Unknown
Mass
Unknown
Launch date (UTC)
1963-09-28 (63 years ago)
Launch vehicle
Unknown
Launch site
Air Force Western Test Range (AFWTR)
Object type
Payload
Rocket body
Debris
Shape & HBR
Unknown shape, 0.1 m
Radar Cross Section
Small (<0.1 m²)

Expand to show TLE details & history
Last TLE update: 22 hours ago

TLE from 22 hours ago
0 TRANSIT 5B-1 DEB
1 02097U 63038G   26125.35852233  .00000738  00000-0  87553-3 0  9994
2 02097  89.9972 338.1843 0038751 325.3168 209.0168 13.66418423 93776
Epoch: 2026-05-05T08:36Z
TLE epoch observation values (Epoch: 2026-05-05T08:36:16.329Z)
Latitude
5.80001°
Longitude
165.88147°
Altitude
1,039.945 km
Speed
7.32 km/s
True Right ascension
10h 32m 44s
True Declination
5° 46' 01"
Sunlit
Object was in daylight at epoch
Visualization orbit readout
Latitude
Unknown
Longitude
Unknown
Altitude
Unknown
Speed
Unknown
Apparent Right ascension
Unknown
Apparent Declination
Unknown
Sunlit
N/A
Visualization observer readout
Local Sidereal Time
14:15:14
Azimuth
Unknown
Elevation
Unknown
Doppler factor
Unknown
Orbital elements
Apogee altitude
1,038.111 km
Perigee altitude
980.855 km
Semi-major axis
7,387.62 km
Eccentricity
0.00388
Inclination
89.9972°
RAAN
338.1843°
Arg. of periapsis
325.3168°
True anomaly
208.80231°
Mean anomaly
209.0168°
Eccentric anomaly
208.90947°
Mean motion
3.41811 °/min
Orbital period
105.32 mins
BSTAR
0.00087553
Loading maneuver chart data...
Computing Atmospheric mass density...

Documentation

Showing up to 5 results
|